Miscellaneous Local Product
Issued by NWS North Platte, NE

Home | Current Version | Previous Version | Graphics & Text | Print | Product List | Glossary On
Versions: 1 2 3 4 5 6 7 8 9 10 11 12 13 14 15 16 17 18 19 20 21 22 23 24 25 26 27 28 29 30 31 32 33 34 35 36 37 38 39 40 41 42 43 44 45 46 47 48 49 50
000
AXUS43 KLBF 261910
MISLBF


WESTERN AND NORTH CENTRAL NEBRASKA HOURLY WEATHER ROUNDUP
NATIONAL WEATHER SERVICE NORTH PLATTE NE
200 PM CDT SUN MAR 26 2017

NOTE: "FAIR" INDICATES FEW OR NO CLOUDS BELOW 12,000 FEET WITH NO
SIGNIFICANT WEATHER AND/OR OBSTRUCTIONS TO VISIBILITY.

NOTE: STATIONS NOT REPORTING VARIABLES SUCH AS SKY/WEATHER OR
PRESSURE ARE PROVIDED BY RAWS AND APRS NETWORKS AND ARE NOT UNDER
NATIONAL WEATHER SERVICE QUALITY CONTROL.

...OBSERVATIONS IN AND NEAR THE EASTERN PANHANDLE OF NEBRASKA...

CITY           SKY/WX    TMP DP  RH WIND       PRES   REMARKS
PINE RIDGE     PTSUNNY   53  40  61 N10       29.91R
CHADRON        CLOUDY    49  38  65 N15       29.93S
ALLIANCE       CLOUDY    52  34  50 CALM      29.89F
SIDNEY         LGT RAIN  47  36  65 E7        29.90F
CRESCENT LAKE    N/A     48  43  82 SE5G16      N/A
$$

...OBSERVATIONS IN NORTHERN NEBRASKA AND FAR SOUTHERN SOUTH DAKOTA...

CITY           SKY/WX    TMP DP  RH WIND       PRES   REMARKS
WINNER         CLOUDY    45  39  79 S5        29.93S
VALENTINE      CLOUDY    51  37  58 NE10      29.88F
THEDFORD       MOSUNNY   59  42  53 SE5       29.88F
AINSWORTH      PTSUNNY   50  41  72 E5        29.89F
O`NEILL        CLOUDY    42  42 100 CALM      29.93R
ORD            CLOUDY    47  40  76 VRB6      29.90F
BROKEN BOW     CLOUDY    52  41  66 CALM      29.88F
VALENTINE NWR    N/A     52  40  63 NE5         N/A
HALSEY           N/A     55  41  60 SE6         N/A
BUTTE            N/A     43  40  89 CALM        N/A
CHAMBERS         N/A     49  44  82 E3          N/A
EWING            N/A     43  41  94 CALM        N/A
$$

...OBSERVATIONS IN SOUTHWEST NEBRASKA AND FAR NORTHEAST COLORADO...

CITY           SKY/WX    TMP DP  RH WIND       PRES   REMARKS
WRAY           DRIZZLE   45  41  87 CALM      29.90
HOLYOKE        FAIR      52  41  66 N13       29.89F
IMPERIAL       PTSUNNY   50  41  71 N6        29.89S
OGALLALA       CLOUDY    56  41  56 W9        29.88S
NORTH PLATTE   PTSUNNY   48  40  73 CALM      29.89F
MCCOOK         CLOUDY    46  42  86 E7        29.89S
LEXINGTON      CLOUDY    46  40  81 SE5       29.91S
STAPLETON        N/A     53  43  70 CALM        N/A
GOTHENBURG       N/A     48  37  65 E3          N/A
CALLAWAY         N/A     46  40  79 CALM        N/A
$$

...OBSERVATIONS IN CENTRAL LINCOLN COUNTY AREA...

CITY           SKY/WX    TMP DP  RH WIND       PRES   REMARKS
N.P. AIRPORT   PTSUNNY   48  40  73 CALM      29.89F
N.P. DOWNTOWN    N/A     47  41  81 CALM        N/A
N.P. SOUTHEAST   N/A     48  41  77 CALM        N/A
N.P. HILLCREST   N/A     47  42  82 CALM        N/A
$$

...SOME OBSERVATIONS FROM AROUND THE REGION...

CITY           SKY/WX    TMP DP  RH WIND       PRES   REMARKS
DENVER         PTSUNNY   50  34  54 NE12      29.90R
LIMON          CLOUDY    44  36  73 N17       29.88S
ASPEN          CLOUDY    44  28  53 NW5       29.96S
LARAMIE        CLOUDY    41  31  67 N20G26    29.93F
CASPER         CLOUDY    45  35  68 NW7       29.97F
CHEYENNE       CLOUDY    39  34  82 N14G23    29.93R WCI  31
SCOTTSBLUFF    PTSUNNY   55  34  45 N12G17    29.90F
GRAND ISLAND   CLOUDY    48  43  82 N6        29.91F
OMAHA          CLOUDY    47  40  76 NW7       29.92F
SIOUX FALLS    CLOUDY    45  38  76 VRB5      29.94R
PIERRE         LGT RAIN  43  38  82 CALM      29.94S
RAPID CITY     CLOUDY    42  39  89 N17       29.93S
BISMARCK       SUNNY     60  36  40 CALM      29.93S
KANSAS CITY    CLOUDY    50  44  80 W7        29.93S
HILL CITY      CLOUDY    46  42  86 E12       29.89F
WICHITA        CLOUDY    57  47  69 E14       29.82F
DODGE CITY     CLOUDY    47  42  83 NE10      29.80S
OKLAHOMA CITY  CLOUDY    68  51  54 S15G25    29.77S
DALLAS         PTSUNNY   82  60  47 S23G35    29.78F
AMARILLO       SUNNY     73  28  18 W21G30    29.72S
$$




USA.gov is the U.S. government's official web portal to all federal, state and local government web resources and services.